Weather History for Gwinn, MI

Change the Weather History Date:

Saturday, December 8, 2012

  Actual Average (KESC) Record (KESC)
Temperature  
Mean Temperature 21 °F -  
Max Temperature 29 °F 31 °F 46 °F (1965)
Min Temperature 12 °F 19 °F -4 °F (1958)
Degree Days  
Heating Degree Days 44    
Moisture  
Dew Point 18 °F    
Average Humidity 82    
Maximum Humidity 92    
Minimum Humidity 59    
Precipitation  
Precipitation 0.00 in - - ()
Sea Level Pressure  
Sea Level Pressure 30.03 in    
Wind  
Wind Speed 3 mph (NW)    
Max Wind Speed 10 mph    
Max Gust Speed -    
Visibility 8 miles    
Events Snow    
Averages and records for this station are not official NWS values.
T = Trace of Precipitation, MM = Missing Value Source: NWS Daily Summary

Daily Weather History Graph

Daily Weather History Graph

Search for Another Location

Airport:

Trip Planner

Search our weather history database for the weather conditions in past years. The results will help you decide how hot, cold, wet, or windy it might be!

Date:

Astronomy

Dec. 08, 2012 Rise Set
Actual Time 8:20 AM EST 5:02 PM EST
Civil Twilight 7:45 AM EST 5:37 PM EST
Nautical Twilight 7:07 AM EST 6:15 PM EST
Astronomical Twilight 6:31 AM EST 6:52 PM EST
Moon 2:29 AM EST (12/8) 1:46 PM EST (12/8)
Length of Visible Light 9h 51m
Length of Day
8h 42m
Waning Crescent, 28% of the Moon is Illuminated
Dec 8
Waning Crescent
Dec 13
New
Dec 20
First Quarter
Dec 28
Full
Jan 4
Last Quarter

Hourly Weather History & Observations

Time (EST) Temp. Windchill Dew Point Humidity Pressure Visibility Wind Dir Wind Speed Gust Speed Precip Events Conditions
12:15 AM 25.7 °F 21.5 °F 21.0 °F 82% 29.99 in 3.0 mi NW 3.5 mph - N/A Snow Light Snow
12:36 AM 25.7 °F 20.1 °F 21.7 °F 85% 29.99 in 2.5 mi NNW 4.6 mph - N/A Snow Light Snow
12:56 AM 25.5 °F - 21.9 °F 86% 29.99 in 3.0 mi Calm Calm - N/A Snow Light Snow
1:16 AM 25.3 °F - 21.9 °F 87% 29.98 in 4.0 mi Calm Calm - N/A Snow Light Snow
1:36 AM 25.3 °F 21.1 °F 22.1 °F 87% 29.98 in 4.0 mi NW 3.5 mph - N/A Snow Light Snow
1:56 AM 25.3 °F - 22.1 °F 87% 29.98 in 4.0 mi Calm Calm - N/A Snow Light Snow
2:16 AM 25.3 °F - 22.1 °F 87% 29.98 in 4.0 mi Calm Calm - N/A Snow Light Snow
2:36 AM 25.3 °F - 22.3 °F 88% 29.97 in 4.0 mi Calm Calm - N/A Snow Light Snow
2:56 AM 25.3 °F - 22.5 °F 89% 29.97 in 4.0 mi Calm Calm - N/A Snow Light Snow
3:16 AM 25.3 °F 21.1 °F 22.5 °F 89% 29.97 in 4.0 mi West 3.5 mph - N/A Snow Light Snow
3:35 AM 25.2 °F 20.9 °F 22.1 °F 88% 29.97 in 5.0 mi WNW 3.5 mph - N/A Snow Light Snow
3:56 AM 24.8 °F 20.5 °F 21.9 °F 89% 29.97 in 10.0 mi WNW 3.5 mph - N/A   Overcast
4:16 AM 24.4 °F 20.1 °F 21.7 °F 89% 29.97 in 10.0 mi WNW 3.5 mph - N/A   Overcast
4:35 AM 24.6 °F 18.8 °F 21.7 °F 89% 29.97 in 10.0 mi WNW 4.6 mph - N/A   Overcast
4:56 AM 24.8 °F 20.5 °F 21.7 °F 88% 29.96 in 10.0 mi WNW 3.5 mph - N/A   Overcast
5:15 AM 25.0 °F 20.7 °F 21.9 °F 88% 29.97 in 10.0 mi WNW 3.5 mph - N/A   Overcast
5:36 AM 25.3 °F 19.7 °F 21.9 °F 87% 29.97 in 10.0 mi WNW 4.6 mph - N/A   Overcast
5:55 AM 25.7 °F 20.1 °F 22.1 °F 86% 29.97 in 7.0 mi NW 4.6 mph - N/A Snow Light Snow
6:55 AM 24.8 °F 19.1 °F 21.2 °F 86% 29.97 in 7.0 mi NW 4.6 mph - N/A   Overcast
7:55 AM 26.6 °F 20.0 °F 21.2 °F 80% 29.98 in 10.0 mi NW 5.8 mph - N/A   Overcast
8:55 AM 24.8 °F 17.9 °F 21.2 °F 86% 29.99 in 10.0 mi NW 5.8 mph - N/A   Mostly Cloudy
9:50 AM 26.6 °F 20.0 °F 21.2 °F 80% 30.00 in 10.0 mi NNW 5.8 mph - N/A   Partly Cloudy
10:50 AM 30.2 °F 21.9 °F 19.4 °F 64% 30.02 in 10.0 mi WNW 9.2 mph - N/A   Mostly Cloudy
11:50 AM 28.4 °F 19.1 °F 17.6 °F 64% 30.02 in 10.0 mi NNW 10.4 mph - N/A   Mostly Cloudy
12:50 PM 28.4 °F 22.2 °F 17.6 °F 64% 30.02 in 10.0 mi NNW 5.8 mph - N/A   Overcast
1:50 PM 28.4 °F 20.4 °F 17.6 °F 64% 30.01 in 10.0 mi WNW 8.1 mph - N/A   Overcast
2:50 PM 28.4 °F 20.4 °F 15.8 °F 59% 30.02 in 10.0 mi NW 8.1 mph - N/A   Overcast
3:50 PM 28.4 °F 23.3 °F 17.6 °F 64% 30.04 in 10.0 mi NW 4.6 mph - N/A   Overcast
4:50 PM 28.4 °F 21.2 °F 17.6 °F 64% 30.05 in 10.0 mi NNW 6.9 mph - N/A   Mostly Cloudy
5:50 PM 24.8 °F - 15.8 °F 69% 30.08 in 10.0 mi Calm Calm - N/A   Scattered Clouds
6:50 PM 21.2 °F - 15.8 °F 80% 30.13 in 10.0 mi Calm Calm - N/A   Mostly Cloudy
7:50 PM 21.2 °F 16.4 °F 15.8 °F 80% 30.11 in 10.0 mi NNE 3.5 mph - N/A   Clear
8:55 PM 17.6 °F - 14.0 °F 86% 30.12 in 10.0 mi Calm Calm - N/A   Clear
9:50 PM 14.0 °F - 10.4 °F 86% 30.13 in 10.0 mi Calm Calm - N/A   Clear
10:16 PM 15.6 °F - 12.2 °F 86% 30.13 in 10.0 mi Calm Calm - N/A   Clear
10:35 PM 14.0 °F - 10.4 °F 86% 30.13 in 10.0 mi Calm Calm - N/A   Clear
10:56 PM 12.2 °F - 8.6 °F 85% 30.14 in 10.0 mi Calm Calm - N/A   Clear
11:16 PM 12.2 °F - 10.4 °F 92% 30.14 in 10.0 mi Calm Calm - N/A   Clear
11:35 PM 14.4 °F - 11.3 °F 88% 30.13 in 10.0 mi Calm Calm - N/A   Clear
11:56 PM 13.3 °F - 9.3 °F 84% 30.13 in 10.0 mi Calm Calm - N/A   Clear